This is the latest recevied weather packets stored in our database for station/object KN6WGU. If no packets are shown the sender has not sent any weather packets the latest 10 day(s).
| Time | Temp. | Humidity | Pressure | Rain* | Wind** | Luminosity | Snow |
|---|---|---|---|---|---|---|---|
| 1787682489 | 25° C | 66% | 1013 hPa | 0 mm | - | 643 W/m² | - |
| 1787682184 | 25° C | 67% | 1012.9 hPa | 0 mm | - | 613 W/m² | - |
| 1787681879 | 25.56° C | 66% | 1012.8 hPa | 0 mm | - | 652 W/m² | - |
| 1787681574 | 25° C | 67% | 1013.1 hPa | 0 mm | - | 619 W/m² | - |
| 1787681269 | 25° C | 68% | 1012.8 hPa | 0 mm | - | 653 W/m² | - |
| 1787680964 | 24.44° C | 67% | 1013 hPa | 0 mm | - | 692 W/m² | - |
| 1787680664 | 25.56° C | 69% | 1013 hPa | 0 mm | - | 682 W/m² | - |
| 1787680362 | 23.89° C | 72% | 1013 hPa | 0 mm | - | 669 W/m² | - |
| 1787680061 | 23.89° C | 70% | 1013 hPa | 0 mm | - | 460 W/m² | - |
| 1787679756 | 23.89° C | 71% | 1012.9 hPa | 0 mm | - | 287 W/m² | - |
| 1787679451 | 23.89° C | 72% | 1013 hPa | 0 mm | - | 341 W/m² | - |
| 1787679146 | 23.33° C | 72% | 1013 hPa | 0 mm | - | 312 W/m² | - |
| 1787678841 | 23.33° C | 71% | 1013.2 hPa | 0 mm | - | 85 W/m² | - |
| 1787678536 | 23.89° C | 72% | 1013.2 hPa | 0 mm | - | 216 W/m² | - |
| 1787678235 | 22.78° C | 73% | 1013.2 hPa | 0 mm | - | 102 W/m² | - |
| 1787677930 | 22.78° C | 73% | 1013.1 hPa | 0 mm | - | 64 W/m² | - |
| 1787677625 | 23.33° C | 73% | 1013.2 hPa | 0 mm | - | 96 W/m² | - |
| 1787677324 | 22.78° C | 73% | 1013.1 hPa | 0 mm | - | 114 W/m² | - |
| 1787677023 | 22.78° C | 73% | 1013.2 hPa | 0 mm | - | 73 W/m² | - |
| 1787676719 | 22.78° C | 73% | 1013.1 hPa | 0 mm | - | 85 W/m² | - |
| 1787676414 | 22.78° C | 72% | 1013.3 hPa | 0 mm | - | 75 W/m² | - |
| 1787676110 | 22.78° C | 75% | 1013.4 hPa | 0 mm | - | 115 W/m² | - |
| 1787675806 | 22.78° C | 75% | 1013.2 hPa | 0 mm | - | 116 W/m² | - |
| 1787675502 | 22.78° C | 76% | 1013.4 hPa | 0 mm | - | 91 W/m² | - |
| 1787675199 | 22.78° C | 75% | 1013.2 hPa | 0 mm | - | 72 W/m² | - |
* Rain latest hour (hover to see other rain measurements)
** Current wind speed in m/s (hover to see current wind gust speed)